User: anonymous   Login
Location: Oshawa
(43.9000°N, 78.8670°W)
Time: 22:52:10
(UTC-05:00)
Language:

S-56A Canister/Altair - Orbit

View from above orbital plane
View from above orbital plane
View from above satellite
View from above satellite

Ground track
Ground track

The orbit data is extracted from the following two-line orbital elements,

1    82U 61004B   16342.29241073 +.00000087 +00000-0 +11601-3 0  9992
2    82 038.8565 287.1679 1167470 347.7396 009.7015 12.25798700649712
Epoch (UTC): 07 December 2016 07:01:04
Eccentricity: 0.1167470
inclination: 38.8565°
perigee height: 640 km
apogee height: 2495 km
right ascension of ascending node: 287.1679°
argument of perigee: 347.7396°
revolutions per day: 12.25798700
mean anomaly at epoch: 9.7015°
orbit number at epoch: 64971

The dashed part of the orbit path shows where the satellite is in the earth's shadow,  

DLR